Overview Statistics Trail Chart Weather Telemetry Raw packets
 

This is the latest recevied weather packets stored in our database for station/object EA7URS-13. If no packets are shown the sender has not sent any weather packets the latest 10 day(s).

<< 5 6 7 8 9 10 11 >>
Time Temp. Humidity Pressure Rain* Wind** Luminosity Snow
1788619652 34.44° C 37% 1011.2 hPa 0 mm - 135 W/m² -
1788619351 34.44° C 36% 1011.2 hPa 0 mm - 154 W/m² -
1788619050 34.44° C 36% 1011.2 hPa 0 mm - 154 W/m² -
1788618749 35° C 36% 1011.4 hPa 0 mm - 196 W/m² -
1788618447 35° C 36% 1011.4 hPa 0 mm - 196 W/m² -
1788618146 34.44° C 35% 1011.2 hPa 0 mm - 224 W/m² -
1788617845 34.44° C 35% 1011.2 hPa 0 mm - 224 W/m² -
1788617544 35° C 35% 1011.2 hPa 0 mm - 245 W/m² -
1788617243 35° C 35% 1011.2 hPa 0 mm - 245 W/m² -
1788616942 34.44° C 37% 1011.4 hPa 0 mm - 248 W/m² -
1788616641 34.44° C 37% 1011.4 hPa 0 mm - 248 W/m² -
1788616339 34.44° C 36% 1011.5 hPa 0 mm - 228 W/m² -
1788616038 34.44° C 36% 1011.5 hPa 0 mm - 228 W/m² -
1788615737 34.44° C 36% 1011.5 hPa 0 mm - 228 W/m² -
1788615435 34.44° C 36% 1011.9 hPa 0 mm - 324 W/m² -
1788615134 34.44° C 36% 1011.9 hPa 0 mm - 324 W/m² -
1788614833 33.89° C 37% 1011.8 hPa 0 mm - 527 W/m² -
1788614532 33.89° C 37% 1011.8 hPa 0 mm - 527 W/m² -
1788614231 33.33° C 38% 1011.4 hPa 0 mm - 378 W/m² -
1788613930 33.33° C 38% 1011.4 hPa 0 mm - 378 W/m² -
1788613628 32.78° C 44% 1011.4 hPa 0 mm - 176 W/m² -
1788613327 32.78° C 44% 1011.4 hPa 0 mm - 176 W/m² -
1788613026 31.67° C 47% 1011.5 hPa 0 mm - 146 W/m² -
1788612725 31.67° C 47% 1011.5 hPa 0 mm - 146 W/m² -
1788612433 31.11° C 53% 1011.8 hPa 0 mm - 135 W/m² -

* Rain latest hour (hover to see other rain measurements)
** Current wind speed in m/s (hover to see current wind gust speed)